TimeEET,TemperatureF,Dew PointF,Humidity,Sea Level PressureIn,VisibilityMPH,Wind Direction,Wind SpeedMPH,Gust SpeedMPH,PrecipitationIn,Events,Conditions,WindDirDegrees,DateUTC
12:50 AM,39.2,37.4,93,30.12,6.2,Variable,2.3,-,N/A,,Scattered Clouds,0,2012-11-07 22:50:00
1:50 AM,39.2,35.6,87,30.12,6.2,NE,3.5,-,N/A,,Scattered Clouds,50,2012-11-07 23:50:00
2:00 AM,40,36,78,,6,NE,3.5,,,,Partly Cloudy,50,2012-11-08 00:00:00
2:50 AM,39.2,35.6,87,30.12,6.2,East,3.5,-,N/A,,Scattered Clouds,80,2012-11-08 00:50:00
3:50 AM,39.2,37.4,93,30.12,6.2,Variable,1.2,-,N/A,,Scattered Clouds,0,2012-11-08 01:50:00
4:50 AM,39.2,37.4,93,30.12,6.2,Variable,1.2,-,N/A,,Scattered Clouds,0,2012-11-08 02:50:00
5:50 AM,39.2,35.6,87,30.12,6.2,NE,3.5,-,N/A,,Scattered Clouds,50,2012-11-08 03:50:00
6:50 AM,42.8,41.0,93,30.15,6.2,Variable,2.3,-,N/A,,Scattered Clouds,0,2012-11-08 04:50:00
7:50 AM,50.0,39.2,66,30.15,6.2,Variable,2.3,-,N/A,,Scattered Clouds,0,2012-11-08 05:50:00
8:00 AM,50,38,54,,6,WNW,2.3,,,,Partly Cloudy,290,2012-11-08 06:00:00
8:50 AM,53.6,35.6,51,30.15,6.2,Variable,2.3,-,N/A,,Scattered Clouds,0,2012-11-08 06:50:00
9:50 AM,55.4,33.8,44,30.12,6.2,West,4.6,-,N/A,,Scattered Clouds,260,2012-11-08 07:50:00
10:50 AM,55.4,35.6,47,30.09,6.2,West,5.8,-,N/A,,Mostly Cloudy,280,2012-11-08 08:50:00
11:50 AM,57.2,37.4,48,30.09,6.2,NNW,9.2,-,N/A,,Mostly Cloudy,330,2012-11-08 09:50:00
12:50 PM,57.2,37.4,48,30.09,6.2,NW,9.2,-,N/A,,Mostly Cloudy,320,2012-11-08 10:50:00
1:50 PM,57.2,37.4,48,30.09,6.2,NW,6.9,-,N/A,,Mostly Cloudy,310,2012-11-08 11:50:00
2:00 PM,57,38,37,,7,NW,6.9,,,,Partly Cloudy,310,2012-11-08 12:00:00
2:50 PM,55.4,37.4,51,30.09,6.2,NW,3.5,-,N/A,,Mostly Cloudy,320,2012-11-08 12:50:00
3:50 PM,53.6,37.4,54,30.09,6.2,Calm,Calm,-,N/A,,Mostly Cloudy,0,2012-11-08 13:50:00
4:50 PM,48.2,37.4,66,30.09,6.2,SE,3.5,-,N/A,,Mostly Cloudy,140,2012-11-08 14:50:00
5:50 PM,46.4,37.4,71,30.12,6.2,ESE,2.3,-,N/A,,Mostly Cloudy,120,2012-11-08 15:50:00
6:50 PM,41.0,37.4,87,30.12,6.2,Calm,Calm,-,N/A,,Mostly Cloudy,0,2012-11-08 16:50:00
7:50 PM,42.8,37.4,81,30.12,6.2,ENE,3.5,-,N/A,,Mostly Cloudy,60,2012-11-08 17:50:00
8:00 PM,42,36,74,,7,NE,3.5,,,,Partly Cloudy,50,2012-11-08 18:00:00
8:50 PM,41.0,35.6,81,30.12,6.2,ENE,4.6,-,N/A,,Mostly Cloudy,60,2012-11-08 18:50:00
9:50 PM,41.0,35.6,81,30.12,6.2,ENE,3.5,-,N/A,,Mostly Cloudy,60,2012-11-08 19:50:00
10:50 PM,39.2,35.6,87,30.12,6.2,East,2.3,-,N/A,,Mostly Cloudy,90,2012-11-08 20:50:00
11:50 PM,39.2,33.8,81,30.09,6.2,East,3.5,-,N/A,,Mostly Cloudy,80,2012-11-08 21:50:00